GAOFEN 3 03

导读 | 星芒AI

高分三号03星(GAOFEN 3 03)是中国高分辨率对地观测系统的重要组成部分,于2021年发射。该卫星具备高分辨率、多模式合成孔径雷达(SAR)成像能力,可在多种天气条件下全天候观测地球表面。主要用于海洋监测、灾害预警、资源调查等领域,提升中国在遥感数据获取和应用方面的能力。

基本信息
目录编号:
52200
目录名称:
GAOFEN 3 03
国际标识:
2022-035A
轨道中心:
EARTH
卫星名称:
GAOFEN 3 03
卫星全名:
--
卫星状态:
在轨 (已飞行1302 天)
发射日期:
2022-04-06 UTC
国别 :
中国 (CN)
星等 :
--
轨道信息
数据来源 国际轨道数据 AOE轨道数据
星历时间 2025-10-28T23:30:12+0800
15小时前
查看轨道信息
2025-10-29T08:00:00+0800
6小时前
查看轨道信息
半长轴 7129.331km 7129.328km
偏心率 0.0001285 0.0001348
轨道倾角 98.412° 98.412°
近地点辐角 111.577° 101.509°
升交点赤经 308.562° 308.911°
平近点角 248.556° 295.663°
近地点 750.279km 750.231km
远地点 752.113km 752.155km
周期 99.846分钟 99.846分钟
每日圈数 14.422138 14.422147
详细信息
使用方式:
暂无
2D轨道图
3D轨道图
轨道高度分析图
轨道倾角分析图
轨道综合分析图
查看轨道综合分析图